TimePST,TemperatureF,Dew PointF,Humidity,Sea Level PressureIn,VisibilityMPH,Wind Direction,Wind SpeedMPH,Gust SpeedMPH,PrecipitationIn,Events,Conditions,WindDirDegrees,DateUTC
12:56 AM,48.0,44.1,86,29.62,8.0,Variable,5.8,-,0.08,Rain,Light Rain,0,2012-11-30 08:56:00
1:14 AM,48.2,44.6,87,29.59,3.0,Variable,3.5,-,0.03,Rain,Rain,0,2012-11-30 09:14:00
1:35 AM,48.2,44.6,87,29.59,6.0,Calm,Calm,-,0.08,Rain,Light Rain,0,2012-11-30 09:35:00
1:56 AM,48.0,45.0,89,29.62,5.0,Calm,Calm,-,0.13,Rain,Rain,0,2012-11-30 09:56:00
2:20 AM,48.2,44.6,87,29.59,2.5,Variable,4.6,-,0.08,Rain,Rain,0,2012-11-30 10:20:00
2:27 AM,48.2,44.6,87,29.59,5.0,SE,4.6,-,0.09,Rain,Light Rain,140,2012-11-30 10:27:00
2:36 AM,48.2,44.6,87,29.61,5.0,Calm,Calm,-,0.11,Rain,Light Rain,0,2012-11-30 10:36:00
2:56 AM,48.9,45.0,86,29.62,5.0,ESE,5.8,-,0.14,Rain,Rain,110,2012-11-30 10:56:00
3:56 AM,48.0,45.0,89,29.64,6.0,Variable,3.5,-,0.07,Rain,Light Rain,0,2012-11-30 11:56:00
4:56 AM,45.0,41.0,86,29.65,10.0,Calm,Calm,-,0.02,,Clear,0,2012-11-30 12:56:00
5:56 AM,46.0,42.1,86,29.67,9.0,Calm,Calm,-,0.01,Rain,Light Rain,0,2012-11-30 13:56:00
6:33 AM,42.8,39.2,87,29.68,2.5,WSW,3.5,-,0.06,Rain,Heavy Rain,250,2012-11-30 14:33:00
6:56 AM,43.0,37.9,82,29.71,6.0,Calm,Calm,-,0.15,Rain,Light Rain,0,2012-11-30 14:56:00
7:56 AM,43.0,39.9,89,29.72,10.0,Calm,Calm,-,0.02,Rain,Light Rain,0,2012-11-30 15:56:00
8:32 AM,42.8,39.2,87,29.68,4.0,Calm,Calm,-,0.01,Rain,Light Rain,0,2012-11-30 16:32:00
8:56 AM,46.0,42.1,86,29.72,9.0,East,3.5,-,0.01,Rain,Light Rain,100,2012-11-30 16:56:00
9:56 AM,46.9,42.1,83,29.73,10.0,ESE,4.6,-,0.01,,Overcast,110,2012-11-30 17:56:00
10:56 AM,48.0,42.1,80,29.75,10.0,East,3.5,-,0.01,Rain,Light Rain,100,2012-11-30 18:56:00
11:56 AM,50.0,41.0,71,29.73,10.0,Calm,Calm,-,0.00,,Mostly Cloudy,0,2012-11-30 19:56:00
12:56 PM,52.0,41.0,66,29.73,10.0,ESE,5.8,-,N/A,,Mostly Cloudy,110,2012-11-30 20:56:00
1:56 PM,50.0,39.9,68,29.75,10.0,ESE,4.6,-,N/A,,Mostly Cloudy,110,2012-11-30 21:56:00
2:56 PM,48.9,37.9,66,29.76,10.0,Variable,3.5,-,N/A,,Overcast,0,2012-11-30 22:56:00
3:56 PM,46.9,39.9,77,29.78,10.0,East,8.1,-,0.00,Rain,Light Rain,100,2012-11-30 23:56:00
4:56 PM,46.9,39.9,77,29.79,10.0,Calm,Calm,-,0.00,Rain,Light Rain,0,2012-12-01 00:56:00
5:56 PM,46.0,39.9,79,29.79,10.0,ESE,3.5,-,0.00,,Mostly Cloudy,110,2012-12-01 01:56:00
6:56 PM,45.0,39.9,82,29.80,10.0,Calm,Calm,-,N/A,,Overcast,0,2012-12-01 02:56:00
7:56 PM,44.1,37.9,79,29.81,10.0,Calm,Calm,-,N/A,,Partly Cloudy,0,2012-12-01 03:56:00
8:56 PM,45.0,39.0,80,29.82,8.0,Calm,Calm,-,0.00,Rain,Light Rain,0,2012-12-01 04:56:00
9:36 PM,44.6,39.2,81,29.80,6.0,Calm,Calm,-,0.03,Rain,Light Rain,0,2012-12-01 05:36:00
9:46 PM,44.6,39.2,81,29.80,6.0,Calm,Calm,-,0.04,Rain,Light Rain,0,2012-12-01 05:46:00
9:56 PM,44.1,39.0,82,29.83,10.0,Variable,3.5,-,0.04,Rain,Light Rain,0,2012-12-01 05:56:00
10:56 PM,43.0,37.9,82,29.83,10.0,Calm,Calm,-,0.01,,Mostly Cloudy,0,2012-12-01 06:56:00
11:56 PM,45.0,39.9,82,29.80,10.0,Variable,3.5,-,0.01,Rain,Light Rain,0,2012-12-01 07:56:00